Temp
38 32 30 34 36 38 37 34 31 37 43 40 41 42 47 51 48 47 47 46 46 51 55 55 53 54 52 53 53 52 52 50 49 45 44 42 44 41 39 40 42 42 42 42
30 25 35 41 39 37 36 33 32 37 41 38 39 39 43 46 50 53 51 51 47 47 47 48 47 49 51 51 53 52 52 50 50 49 49 44 41 39 42 41 41 42 42 41
23 29 37 36 36 33 33 30 31 32 35 39 32 34 38 40 44 48 49 52 52 50 47 45 45 46 50 50 50 51 52 50 51 50 43 39 39 38 38 37 38 40 41 41
23 32 31 28 28 35 27 36 34 34 31 24 34 23 36 41 40 44 50 50 49 45 48 50 47 45 46 50 52 52 51 49 50 48 47 43 44 40 39 38 38 39 40 39
23 27 29 25 28 35 32 38 33 34 29 28 29 25 32 38 36 41 47 51 49 51 51 53 49 50 49 50 49 50 49 48 48 47 48 45 45 44 37 38 39 37 38 38
27 36 33 32 34 38 38 34 33 31 28 20 27 26 29 30 36 41 47 51 51 53 54 53 54 49 48 46 44 47 46 46 45 45 45 45 43 39 37 38 38 36 35 35
26 25 31 36 26 30 30 28 20 18 19 19 31 26 30 34 45 46 47 46 49 51 54 54 49 48 47 43 42 43 44 42 42 43 42 43 40 40 39 38 38 34 33 32
19 14 23 33 28 25 26 27 22 15 15 18 26 19 28 41 45 36 39 40 46 45 47 49 52 49 46 42 42 44 42 40 41 41 40 39 38 39 39 38 37 38 36 34
18 18 34 31 34 34 26 23 30 21 3 9 15 24 33 33 35 38 40 38 44 44 44 45 45 45 44 42 42 43 41 40 40 40 38 36 36 36 35 34 34 35 33 33
24 15 29 31 34 33 30 34 23 24 16 14 15 15 21 22 30 34 35 34 35 36 37 39 38 38 38 39 40 42 41 37 37 37 37 36 35 34 34 34 33 33 31 31
24 21 23 30 23 20 26 24 23 26 23 15 14 18 23 29 28 27 29 31 29 31 32 31 31 32 31 33 34 34 34 34 34 35 34 34 33 33 33 34 32 32 29 30
27 23 15 22 28 29 28 25 27 17 11 14 13 15 14 12 14 17 24 28 27 26 24 25 25 25 27 29 32 32 33 33 33 32 32 31 31 29 29 30 29 29 29 27
26 20 16 20 26 29 24 23 25 20 18 14 13 15 12 11 17 21 22 24 23 24 22 22 21 21 22 23 26 27 28 28 29 30 30 29 29 28 28 28 28 27 28 27
32 23 21 16 20 25 23 26 27 26 16 11 17 18 18 20 18 20 19 22 21 20 17 16 18 19 19 20 22 23 23 26 26 29 29 27 27 27 26 26 27 28 27 27
22 13 21 23 19 21 22 19 20 23 24 23 15 17 20 23 26 26 15 22 20 22 25 21 18 22 23 22 21 22 22 23 24 25 27 26 26 26 26 26 25 25 26 26
20 17 18 16 19 21 18 18 19 19 14 9 11 23 23 21 28 24 29 26 18 20 24 24 23 20 20 22 23 23 23 23 25 24 23 23 23 23 22 24 24 24 24 24
22 19 14 10 16 19 12 16 17 18 19 17 14 19 22 19 21 22 22 26 24 27 22 18 22 22 23 24 26 22 22 23 22 22 22 22 23 23 22 22 21 21 22 22
21 17 14 10 12 5 16 20 20 20 20 21 20 20 21 20 21 23 22 20 22 25 22 22 21 22 23 21 22 24 24 24 23 22 23 23 23 22 22 22 21 21 21 22
25 22 16 13 4 14 18 18 18 17 18 20 18 20 20 22 22 22 22 21 21 23 23 22 24 17 20 20 21 23 23 23 23 23 22 22 23 22 22 21 21 21 21 22
24 23 20 11 9 3 14 22 24 22 13 19 20 19 16 23 18 19 20 21 21 22 23 21 20 20 20 18 23 23 22 22 22 23 23 22 22 22 21 21 21 22 22 23
18 18 14 13 11 11 20 23 26 12 10 21 18 17 18 17 19 21 19 20 21 21 21 22 22 21 20 21 23 22 22 21 22 22 22 22 22 21 22 22 22 21 21 22
16 14 14 16 11 8 23 24 18 20 23 20 19 15 15 12 17 17 17 18 20 20 21 21 21 20 22 24 24 22 21 21 20 20 20 19 18 21 21 19 19 18 18 18
15 18 17 18 17 23 23 20 22 22 18 20 21 21 21 20 18 20 19 20 21 21 21 22 20 20 21 21 22 20 19 19 17 17 16 15 14 18 19 17 17 17 17 17
21 23 20 21 21 21 21 21 21 20 21 22 22 22 22 21 21 20 19 20 20 21 21 20 19 18 17 19 20 19 18 17 15 12 13 13 13 14 14 18 18 16 14 14
19 21 17 21 21 21 22 22 21 21 21 21 22 21 20 20 19 20 20 20 19 20 20 19 18 18 17 17 16 16 16 15 15 15 15 16 16 15 15 16 14 16 15 16
19 15 14 15 18 18 21 22 20 19 19 20 19 19 20 19 19 20 18 18 19 18 16 15 15 16 16 15 14 14 14 14 14 14 15 15 15 13 14 13 12 21 24 26
MSLP
1009.84 1009.40 1007.10 1006.55 1006.55 1006.48 1006.96 1007.01 1006.70 1006.14 1005.79 1005.37 1004.61 1002.98 1003.68 1003.72 1003.68 1003.65 1003.69 1004.15 1004.38 1004.31 1003.89 1004.35 1004.89 1005.40 1006.08 1006.68 1007.27 1007.75 1008.71 1009.58 1010.77 1011.85 1012.96 1013.89 1014.23 1014.73 1015.27 1015.52 1015.69 1016.17 1016.93 1017.55
1010.16 1008.24 1006.50 1006.17 1006.42 1006.39 1006.31 1006.41 1006.03 1006.00 1006.00 1005.56 1004.75 1003.16 1003.72 1003.52 1003.07 1002.97 1003.08 1003.10 1003.44 1003.63 1003.73 1004.02 1004.38 1004.92 1005.48 1005.81 1006.45 1007.11 1007.81 1008.77 1009.62 1010.63 1011.59 1012.65 1013.59 1014.53 1014.86 1015.34 1015.71 1016.04 1016.49 1017.05
1009.61 1006.30 1006.60 1006.59 1006.02 1006.14 1005.69 1005.94 1005.87 1005.71 1005.90 1005.33 1005.23 1003.36 1003.68 1003.29 1002.95 1002.54 1002.29 1002.16 1002.41 1002.62 1002.96 1003.33 1003.86 1004.02 1004.53 1005.19 1005.75 1006.35 1006.80 1007.77 1008.70 1009.89 1011.16 1012.47 1013.53 1014.48 1015.11 1015.43 1015.64 1015.91 1016.24 1016.79
1008.20 1006.53 1007.03 1006.36 1005.65 1005.23 1004.51 1004.79 1005.36 1005.92 1006.28 1005.18 1005.34 1003.08 1003.06 1002.72 1002.59 1002.39 1001.49 1001.60 1001.63 1001.93 1002.20 1002.30 1002.74 1003.27 1003.46 1003.52 1003.95 1005.06 1006.04 1006.78 1007.67 1008.66 1009.87 1010.84 1011.53 1012.98 1013.65 1014.23 1015.04 1015.69 1016.15 1016.58
1006.68 1005.62 1005.28 1005.18 1004.13 1004.22 1003.44 1004.04 1004.75 1005.44 1005.81 1005.84 1005.14 1004.15 1002.00 1002.36 1002.04 1001.36 1000.81 1000.63 1000.77 1000.84 1000.92 1001.05 1001.41 1001.62 1001.91 1002.75 1003.60 1004.34 1005.45 1006.47 1007.18 1007.83 1008.55 1009.82 1010.96 1011.94 1012.96 1013.98 1014.85 1015.49 1016.05 1016.51
1005.34 1004.77 1004.18 1003.75 1003.88 1003.63 1003.55 1004.29 1004.71 1005.10 1005.19 1004.09 1004.23 1004.28 1000.60 1001.79 1001.16 1000.72 1000.40 999.86 999.80 1000.01 1000.07 1000.13 1000.15 1001.03 1001.75 1002.66 1003.53 1004.17 1004.94 1005.90 1006.71 1007.58 1008.20 1008.95 1010.11 1011.33 1012.59 1013.59 1014.60 1015.39 1016.01 1016.41
1004.40 1003.44 1002.60 1003.44 1004.26 1004.48 1004.10 1003.48 1003.94 1003.94 1003.62 1002.60 1002.69 1003.39 1001.54 1000.34 1000.15 999.61 999.63 999.72 999.44 999.36 999.49 999.52 1000.02 1000.57 1001.32 1002.08 1002.92 1003.92 1004.85 1005.83 1006.57 1007.30 1008.25 1008.99 1009.82 1010.75 1011.64 1012.63 1013.71 1014.91 1015.83 1016.37
1004.49 1002.94 1002.36 1002.21 1002.69 1003.32 1002.84 1003.10 1002.47 1002.79 1003.29 1003.26 1002.82 1001.93 1000.47 1000.04 999.99 999.84 999.72 999.49 999.33 999.27 999.22 999.41 999.53 1000.03 1000.64 1001.60 1002.48 1003.27 1004.21 1005.35 1006.08 1006.85 1007.91 1008.81 1009.68 1010.56 1011.37 1012.06 1013.02 1013.99 1014.90 1015.60
1005.15 1003.13 1001.22 1001.37 1001.04 1001.86 1002.26 1002.49 1002.15 1003.04 1003.80 1004.11 1002.90 1002.00 1000.86 1000.36 1000.22 1000.01 999.84 999.94 999.47 999.37 999.71 999.67 999.70 999.89 1000.24 1001.04 1001.75 1002.36 1003.53 1004.63 1005.47 1006.39 1007.38 1008.38 1009.32 1010.30 1011.17 1011.99 1012.68 1013.38 1014.31 1015.28
1005.74 1003.97 1001.59 1000.78 1000.91 1001.19 1001.36 1001.12 1002.64 1003.10 1002.75 1003.48 1003.39 1002.72 1001.87 1001.52 1001.27 1000.70 1000.43 1000.41 1000.44 1000.13 1000.30 1000.17 1000.12 1000.24 1000.63 1001.13 1001.77 1002.48 1003.25 1004.02 1005.10 1006.18 1007.18 1008.22 1009.13 1010.01 1010.87 1011.89 1012.67 1013.33 1014.05 1014.99
1005.66 1004.93 1002.34 1001.42 1000.92 1000.78 1001.33 1001.22 1001.83 1002.35 1003.01 1003.48 1004.07 1003.55 1002.49 1002.10 1002.00 1002.14 1001.71 1001.52 1001.96 1001.74 1001.41 1001.51 1001.47 1001.56 1001.71 1002.11 1002.42 1003.08 1003.80 1004.33 1005.41 1006.36 1007.18 1008.32 1009.42 1010.38 1011.17 1011.77 1012.58 1013.24 1014.00 1014.87
1005.40 1004.67 1003.35 1001.75 1001.13 1001.00 1000.70 1000.94 1001.59 1002.77 1003.86 1004.07 1004.23 1003.14 1002.72 1003.37 1003.28 1003.42 1003.32 1003.06 1002.86 1002.89 1002.90 1002.80 1002.97 1003.02 1003.23 1003.47 1003.62 1003.86 1004.41 1004.88 1005.83 1006.67 1007.66 1008.70 1009.63 1010.67 1011.66 1012.25 1012.72 1013.35 1014.07 1015.01
1005.73 1004.80 1003.84 1001.89 1001.69 1001.16 1001.27 1001.55 1001.63 1002.44 1003.05 1003.70 1004.64 1003.78 1003.45 1004.12 1003.91 1004.13 1004.35 1004.00 1003.76 1003.85 1003.95 1003.95 1004.21 1004.31 1004.58 1004.69 1004.78 1004.79 1005.32 1006.05 1006.60 1007.24 1008.22 1009.51 1010.26 1011.17 1011.86 1012.73 1013.27 1013.58 1014.17 1014.99
1005.73 1005.40 1004.56 1004.07 1003.29 1002.72 1002.10 1002.08 1002.29 1002.65 1003.41 1004.22 1004.46 1004.06 1004.72 1005.19 1005.65 1005.04 1004.91 1004.62 1004.59 1004.85 1005.04 1004.83 1005.15 1005.71 1005.64 1005.67 1005.82 1006.06 1006.42 1006.88 1007.56 1008.15 1008.83 1009.87 1010.74 1011.55 1012.38 1012.89 1013.41 1013.89 1014.32 1014.99
1006.62 1006.31 1005.29 1004.30 1003.86 1003.38 1003.38 1003.87 1003.84 1003.56 1003.63 1004.62 1005.14 1005.39 1006.40 1006.56 1006.09 1005.67 1005.27 1004.99 1005.28 1005.52 1005.83 1005.42 1005.74 1006.32 1006.84 1006.84 1006.66 1007.15 1007.57 1007.78 1008.32 1008.88 1009.66 1010.14 1010.78 1011.71 1012.57 1013.21 1013.52 1013.96 1014.48 1014.90
1007.35 1006.87 1005.79 1004.92 1004.38 1004.25 1004.80 1004.97 1004.70 1004.94 1005.21 1005.42 1005.76 1005.80 1006.48 1006.46 1005.59 1005.22 1005.08 1005.36 1005.58 1006.10 1006.20 1005.96 1006.33 1006.63 1006.76 1007.42 1007.70 1007.79 1008.37 1008.74 1008.88 1009.30 1010.14 1010.58 1011.09 1011.97 1012.75 1013.33 1013.69 1014.14 1014.57 1014.79
1007.73 1007.19 1006.91 1006.17 1005.64 1005.50 1006.08 1006.95 1006.68 1006.90 1006.96 1007.04 1007.28 1007.49 1006.74 1006.28 1006.44 1006.45 1006.15 1006.20 1005.99 1006.02 1006.47 1006.77 1006.74 1007.10 1007.26 1007.57 1007.83 1008.20 1008.95 1009.18 1009.66 1010.14 1010.59 1010.97 1011.41 1012.13 1012.68 1013.29 1013.78 1014.10 1014.52 1014.92
1007.60 1007.99 1007.94 1006.91 1006.08 1006.97 1007.79 1007.87 1007.83 1007.83 1008.17 1008.34 1008.41 1008.19 1007.79 1007.47 1007.30 1007.45 1007.34 1007.17 1006.73 1006.42 1006.34 1006.53 1006.80 1007.35 1007.84 1008.10 1008.44 1008.76 1009.34 1009.74 1009.95 1010.50 1011.07 1011.47 1011.58 1011.98 1012.60 1013.28 1013.79 1014.12 1014.57 1014.91
1007.07 1007.68 1007.25 1007.14 1007.23 1007.94 1008.21 1008.34 1008.44 1008.54 1008.86 1009.01 1009.10 1008.73 1008.35 1007.42 1007.18 1007.68 1007.90 1007.85 1007.50 1006.86 1006.42 1006.69 1007.09 1007.93 1008.25 1008.54 1008.89 1009.04 1009.32 1010.23 1010.46 1010.90 1011.33 1011.61 1011.92 1012.28 1012.86 1013.19 1013.60 1013.97 1014.35 1014.55
1006.53 1007.03 1007.37 1007.52 1007.84 1008.59 1008.81 1008.55 1008.61 1008.93 1009.42 1009.56 1009.70 1009.53 1009.29 1008.26 1008.22 1008.64 1008.56 1008.28 1007.76 1007.31 1007.09 1007.13 1007.62 1008.20 1008.66 1009.25 1009.54 1009.70 1010.03 1010.14 1010.41 1011.14 1011.73 1011.80 1012.11 1012.54 1012.98 1013.14 1013.55 1013.91 1014.19 1014.03
1006.97 1007.11 1007.35 1007.58 1008.30 1009.13 1009.44 1009.07 1008.84 1009.75 1010.89 1010.11 1010.28 1010.20 1010.11 1010.05 1010.15 1009.67 1009.46 1008.99 1008.66 1008.31 1008.09 1008.16 1008.22 1008.71 1009.23 1009.43 1009.53 1009.89 1010.32 1010.67 1011.18 1011.74 1011.89 1012.26 1012.63 1012.76 1013.17 1013.07 1013.57 1013.74 1013.95 1013.93
1008.23 1008.28 1008.27 1008.29 1009.05 1010.13 1009.65 1009.16 1010.30 1011.59 1010.98 1010.96 1010.70 1010.63 1010.50 1010.26 1009.91 1009.93 1009.79 1009.54 1009.23 1009.01 1008.82 1009.02 1009.20 1009.45 1009.64 1009.73 1009.89 1010.44 1011.08 1011.48 1011.75 1012.08 1012.33 1012.81 1013.05 1013.31 1013.17 1013.33 1013.69 1013.86 1013.93 1014.11
1009.42 1009.73 1009.49 1009.70 1010.40 1011.07 1011.52 1011.84 1012.22 1012.15 1012.06 1011.67 1011.45 1011.03 1010.71 1010.46 1010.16 1009.90 1009.86 1009.78 1009.66 1009.50 1009.60 1009.79 1009.98 1010.25 1010.41 1010.52 1010.63 1011.01 1011.54 1011.83 1012.18 1012.51 1012.91 1013.46 1013.60 1013.66 1013.26 1013.44 1013.75 1013.91 1013.76 1013.93
1010.43 1010.33 1010.31 1010.50 1011.46 1011.73 1012.20 1012.45 1012.72 1012.76 1012.63 1012.33 1012.04 1011.58 1011.01 1010.81 1010.46 1010.24 1010.16 1010.19 1010.22 1010.19 1010.30 1010.51 1010.65 1010.84 1010.99 1011.07 1011.21 1011.39 1011.73 1012.02 1012.40 1013.05 1013.64 1013.76 1013.44 1013.61 1013.83 1013.82 1013.92 1013.93 1013.97 1013.96
1012.14 1011.75 1011.91 1011.71 1012.07 1012.38 1012.77 1013.14 1013.38 1013.07 1012.87 1012.69 1012.41 1012.08 1011.74 1011.43 1011.15 1010.88 1010.74 1010.67 1010.73 1010.84 1010.99 1011.12 1011.30 1011.48 1011.68 1011.75 1011.88 1012.26 1012.63 1012.91 1013.32 1013.81 1014.07 1013.98 1013.89 1013.93 1013.97 1014.25 1013.86 1014.11 1014.11 1013.99
1013.28 1013.44 1013.52 1013.40 1013.77 1013.97 1013.51 1013.81 1014.01 1013.73 1013.61 1013.39 1013.06 1012.66 1012.52 1012.36 1012.10 1011.75 1011.61 1011.55 1011.55 1011.57 1011.74 1011.88 1011.97 1011.99 1012.10 1012.28 1012.31 1012.68 1013.00 1013.21 1013.21 1013.06 1013.01 1013.29 1013.59 1013.75 1013.86 1013.82 1014.12 1013.94 1013.72 1013.61
Wind_Speed
19 16 23 28 26 25 23 17 16 12 7 10 23 28 19 13 7 10 10 9 12 15 17 14 14 15 13 14 16 19 19 16 13 9 9 5 8 5 3 4 7 8 6 6
13 26 33 27 20 23 25 24 23 10 10 9 15 23 9 10 14 18 16 17 12 9 9 8 9 13 15 17 17 16 19 17 15 11 10 4 5 2 3 4 5 6 7 7
21 29 16 28 28 26 26 25 25 21 5 14 3 24 17 8 9 9 8 14 13 15 12 9 10 15 16 16 17 18 19 18 17 13 8 5 5 4 3 3 4 4 7 7
17 26 26 25 22 30 29 28 24 22 14 19 11 21 18 18 13 12 19 15 15 10 10 11 13 13 16 21 20 19 19 19 18 18 16 14 11 8 5 5 4 5 7 7
12 14 17 21 30 24 27 23 23 22 17 17 9 11 13 9 10 16 21 18 13 17 17 18 14 17 17 16 15 16 16 17 17 19 18 14 12 8 4 5 9 5 5 6
27 15 9 12 5 15 20 7 16 13 14 22 20 18 21 8 14 13 17 21 13 16 16 15 14 10 9 8 10 14 17 17 16 17 16 18 16 12 9 8 8 6 4 4
6 19 24 14 12 10 6 12 9 12 13 16 17 16 24 9 24 29 24 13 15 14 15 13 11 11 11 14 14 13 15 14 14 15 14 14 13 14 14 13 9 9 6 3
4 9 6 11 22 10 10 12 9 11 5 13 6 11 13 23 26 7 9 13 14 9 8 9 12 11 13 15 16 17 17 15 16 16 14 11 11 8 8 10 8 8 8 7
6 7 8 10 5 20 8 12 2 1 2 5 4 5 8 5 10 15 18 12 19 10 8 12 9 9 12 14 17 19 18 15 16 15 13 12 11 10 9 8 7 7 6 5
4 10 5 2 5 6 5 7 7 10 6 9 3 3 6 3 14 14 12 9 7 8 8 8 5 6 6 9 11 13 15 15 14 13 11 10 9 8 8 8 8 8 6 6
3 4 7 5 6 9 9 5 4 2 2 2 1 5 9 10 8 9 9 6 6 10 7 2 3 5 5 6 8 8 10 13 12 12 10 11 8 7 7 8 7 7 6 7
5 4 5 8 2 4 3 5 6 4 5 2 5 9 2 1 3 2 7 9 7 2 2 3 4 5 6 6 7 8 9 11 10 10 10 9 9 7 6 6 7 7 8 5
3 3 6 7 0 1 3 2 4 4 3 7 6 8 4 4 6 4 5 7 3 0 3 4 5 5 5 5 7 9 9 9 9 10 11 8 8 7 7 6 5 6 7 6
4 3 4 6 8 4 3 2 2 12 3 3 6 7 8 9 7 8 5 5 3 1 1 3 6 5 5 5 6 8 9 8 8 9 9 9 7 6 5 5 5 5 5 6
3 3 4 13 9 3 6 7 7 3 2 4 5 2 4 10 8 6 5 5 3 2 1 3 4 6 5 5 7 7 7 7 6 8 7 7 7 6 5 4 4 4 5 5
4 5 6 7 6 7 5 12 8 9 6 5 5 2 9 9 11 7 7 5 3 2 2 3 5 4 7 6 5 7 6 5 5 8 6 6 6 6 5 4 4 4 4 4
4 3 5 5 2 3 6 9 7 3 7 3 8 6 13 11 11 11 12 8 5 3 4 4 4 5 6 6 8 8 6 6 6 5 5 6 6 5 4 4 3 3 3 3
3 2 3 6 4 4 3 2 2 3 6 6 4 9 11 10 7 4 8 9 10 7 5 5 3 4 5 4 7 8 7 5 6 6 6 6 6 5 5 4 4 3 4 5
11 3 4 2 2 3 2 4 3 3 4 8 8 12 10 14 2 2 12 9 7 10 5 4 5 3 5 6 5 8 8 4 4 5 5 4 4 5 5 5 4 3 3 4
7 8 3 3 3 1 4 6 3 1 1 7 7 11 10 13 5 3 13 11 10 9 3 6 7 6 8 4 5 7 7 5 5 5 4 4 4 3 3 3 4 3 3 4
2 2 1 3 3 2 5 9 1 4 6 12 5 6 6 4 2 8 8 7 7 6 6 6 8 8 6 5 6 6 5 4 4 4 4 4 3 3 3 3 3 3 3 2
4 3 3 3 4 3 15 4 6 4 5 6 5 4 5 5 7 4 4 5 6 7 7 7 6 6 4 5 6 6 5 5 4 4 4 3 2 2 3 4 2 1 2 3
4 4 3 4 3 4 3 6 4 4 4 6 9 10 5 6 5 5 5 5 6 5 5 4 5 5 4 4 3 5 4 4 4 3 3 3 2 2 3 2 2 2 1 1
6 7 3 2 3 2 4 1 3 4 5 8 8 7 7 9 7 6 5 3 3 3 3 3 4 4 3 4 4 4 5 4 4 2 2 2 2 1 0 1 1 1 1 1
2 6 5 2 3 3 5 9 8 9 5 8 8 6 8 8 8 5 5 4 3 3 3 2 2 2 2 3 4 3 3 4 5 5 5 3 3 2 1 2 1 2 2 3
3 2 2 2 3 3 4 9 10 9 10 9 9 10 9 8 8 7 5 4 3 3 3 2 2 2 2 2 3 2 3 2 2 2 2 1 1 2 1 0 1 5 8 8
Wind_Direction
254 244 226 217 217 228 240 239 239 232 240 196 224 247 235 226 235 232 234 217 224 234 237 220 210 202 193 187 183 184 181 179 167 167 169 174 190 177 170 172 166 163 162 162
253 251 231 231 225 223 228 238 246 259 229 239 251 257 240 221 233 243 239 242 230 231 243 219 195 188 194 194 195 185 188 180 182 176 178 163 147 159 162 163 165 166 163 164
240 250 242 235 233 233 235 237 240 240 215 238 233 266 251 241 235 252 245 235 237 224 234 216 199 196 196 194 193 194 187 182 181 173 136 93 84 72 104 172 175 178 166 169
241 260 242 253 256 221 234 224 232 238 235 242 170 263 245 235 235 236 247 236 240 223 232 240 209 201 194 203 196 190 186 180 179 167 169 169 180 172 183 161 154 164 171 171
249 231 231 241 236 223 228 217 216 223 233 243 216 254 243 215 231 228 242 250 228 233 226 232 225 210 206 198 191 188 181 179 177 177 179 175 181 171 135 139 159 161 164 168
247 243 214 200 295 223 230 195 215 216 216 234 229 221 253 204 223 236 240 248 233 233 238 231 226 210 207 177 178 176 176 180 174 180 179 179 172 156 145 158 169 171 166 169
271 231 240 248 248 252 253 193 214 218 214 235 218 221 240 218 232 235 237 242 238 224 237 233 209 200 190 179 171 172 175 177 173 175 177 178 169 168 166 166 171 167 163 175
292 319 164 186 202 211 206 238 204 209 191 225 160 209 230 222 246 235 242 238 254 232 229 236 230 206 191 180 177 176 177 171 171 169 170 164 160 167 166 166 164 175 181 177
303 285 305 208 185 192 190 223 334 332 2 61 202 282 310 173 232 235 246 240 255 251 236 244 246 204 187 183 186 182 177 174 172 170 163 160 154 154 161 153 153 159 147 151
275 288 310 265 113 205 178 164 192 217 215 214 245 264 220 226 216 229 248 237 285 296 279 268 242 187 168 171 172 177 177 168 161 155 156 155 150 145 140 145 154 151 135 140
254 239 293 281 192 180 184 217 170 116 169 88 49 267 213 235 215 236 263 301 295 281 284 287 60 64 84 103 128 135 139 137 139 141 131 132 128 125 134 143 142 145 128 141
222 269 269 253 200 250 181 234 180 132 223 220 154 266 245 183 270 289 309 307 305 4 31 60 56 69 72 93 108 115 122 125 124 119 117 117 116 117 126 139 142 141 142 142
314 283 307 337 40 26 145 197 160 140 103 198 143 262 18 7 3 336 294 305 326 344 50 58 43 63 71 81 92 96 99 98 102 110 112 111 116 125 129 131 131 132 137 149
307 309 311 297 309 297 272 54 244 213 189 177 214 269 350 354 341 320 321 341 331 17 153 95 68 27 68 70 87 94 87 91 99 103 113 115 112 112 115 125 136 141 143 155
55 272 284 296 289 291 42 22 341 322 72 224 241 139 37 335 315 310 294 333 350 334 259 83 111 103 51 73 91 85 86 96 100 104 117 127 118 112 123 136 142 144 161 172
336 274 358 300 348 13 65 13 17 41 355 22 338 359 13 310 342 349 348 333 333 313 310 124 122 111 130 125 102 101 97 94 113 122 122 113 116 128 142 150 156 161 170 164
294 325 351 275 33 51 23 349 12 82 30 341 24 314 327 336 344 4 357 344 296 266 232 219 170 165 145 144 138 127 123 114 98 97 111 130 130 137 139 136 140 151 165 150
230 352 255 263 15 48 222 288 295 87 62 35 343 336 325 305 295 15 10 349 338 303 231 211 154 124 115 104 104 113 120 126 123 124 139 146 137 130 136 152 175 175 176 196
202 214 267 341 62 157 52 353 350 15 60 16 355 348 336 318 220 170 13 350 323 321 235 175 121 113 111 106 115 121 110 120 122 129 128 119 130 139 155 165 166 170 187 201
184 213 290 345 71 70 258 324 224 198 345 7 356 351 339 341 41 303 348 345 344 357 11 117 112 107 105 94 122 122 137 132 119 130 140 117 118 130 164 155 171 178 205 204
352 9 156 253 115 348 355 311 324 57 284 339 331 327 336 5 252 298 332 340 356 17 45 69 98 103 103 100 104 91 85 92 100 108 107 129 154 151 179 152 172 175 192 194
22 337 12 17 59 4 342 15 57 327 310 313 318 307 309 275 302 315 328 347 11 27 51 53 79 98 106 114 121 132 139 121 110 113 110 116 134 194 154 149 163 184 174 193
38 357 357 20 75 95 26 68 359 333 304 331 328 326 315 317 328 345 346 5 18 36 47 63 91 92 62 56 99 128 116 112 103 105 131 175 154 188 141 149 180 198 162 195
0 14 41 166 74 144 42 115 19 317 324 328 328 315 340 342 337 343 342 353 12 27 51 60 81 89 86 53 55 81 107 95 85 85 194 188 137 155 26 280 222 213 193 207
337 332 334 36 54 95 129 41 2 339 347 345 342 341 357 352 347 347 350 357 1 22 31 58 75 89 99 80 85 70 101 133 159 174 184 181 169 171 168 222 200 229 228 196
345 12 8 317 68 316 307 9 360 352 353 347 352 353 1 8 349 350 13 13 5 18 17 40 59 122 126 120 123 142 153 166 165 165 149 155 165 172 189 187 293 273 260 255